Temp
95 90 85 88 90 90 87 85 83 87 90 85 85 86 89 89 89 89 90 91 92 93 97 97 96 97 95 93 92 90 89 88 88 88 88 86 81 82 88 90 88 87 87 87
89 85 91 92 91 89 87 84 84 88 89 86 87 85 90 90 89 91 90 91 93 94 96 96 96 97 97 94 92 90 88 87 86 89 88 89 86 84 88 91 89 88 87 87
86 89 93 88 88 85 88 84 84 84 86 89 84 84 86 91 91 92 94 95 96 95 96 96 96 97 96 94 93 90 88 87 87 88 88 86 87 84 81 86 87 89 88 88
89 93 89 88 86 89 81 90 87 84 84 78 87 74 83 89 88 89 93 94 95 96 97 98 98 96 98 96 96 92 90 88 88 86 86 83 82 79 85 88 89 87 88 88
85 86 86 85 88 90 85 89 88 86 85 84 82 80 84 89 87 89 92 95 96 97 99 97 99 99 99 99 97 93 89 87 88 86 85 86 83 88 86 90 85 84 88 88
90 96 92 92 91 91 91 88 87 87 86 75 81 81 83 88 86 87 90 95 97 96 99 99 100 99 98 99 95 93 88 85 86 86 85 84 84 82 86 81 81 86 89 88
85 87 93 94 88 91 90 86 74 72 74 71 84 80 84 89 87 87 86 89 94 98 96 97 97 97 96 95 90 92 88 86 87 87 86 85 85 84 83 83 86 85 85 86
77 74 87 93 89 85 86 87 75 62 68 71 81 75 84 89 90 88 89 90 91 95 97 96 96 95 93 92 90 86 88 87 88 87 86 86 85 86 88 86 86 84 83 92
79 78 93 94 95 92 86 81 90 79 82 74 80 83 92 90 87 87 86 87 87 89 91 87 88 92 90 90 88 83 87 87 87 89 86 85 84 83 86 85 85 86 85 89
86 76 89 91 93 91 89 93 79 80 61 61 73 76 80 84 82 84 85 85 85 86 86 88 90 89 90 91 91 87 90 85 89 85 85 82 83 81 83 84 83 84 85 83
90 85 82 87 85 85 85 84 85 87 82 72 69 74 91 86 83 82 84 86 85 85 86 86 87 88 89 91 90 90 86 81 78 79 74 74 71 76 78 78 83 84 85 81
90 88 79 82 89 90 90 88 89 78 74 80 78 78 92 85 86 84 82 84 85 85 85 87 87 87 86 85 85 83 83 80 80 80 79 77 76 77 72 76 79 77 78 78
90 83 75 77 85 88 85 89 90 90 88 77 74 76 86 84 84 83 80 81 81 82 82 85 85 85 83 83 82 81 79 79 79 80 79 76 74 74 74 78 77 77 79 75
85 87 81 75 79 87 82 84 87 88 78 79 81 82 81 81 79 81 79 80 80 80 80 81 81 81 81 80 80 80 80 81 79 80 77 73 71 71 75 77 77 78 76 72
91 80 84 86 84 85 85 85 85 83 85 78 82 82 86 84 83 82 82 81 80 80 81 81 81 80 80 80 81 80 82 81 81 81 79 77 79 79 79 76 76 78 73 72
92 80 85 80 84 85 82 85 86 86 85 83 84 83 92 90 86 83 82 82 81 81 82 82 81 81 80 77 81 82 77 79 81 80 75 77 76 77 76 76 76 72 72 74
87 85 79 74 82 82 76 84 85 86 87 86 81 85 87 83 84 83 83 83 82 82 82 82 83 83 82 82 81 79 74 77 75 74 75 76 76 74 73 74 74 72 72 72
86 84 83 78 78 66 85 91 90 86 88 89 87 86 88 86 87 88 88 85 83 83 82 83 85 83 83 85 84 81 80 77 76 74 74 73 73 72 72 72 71 71 71 70
93 86 78 74 74 79 81 83 84 83 84 90 88 86 86 86 85 81 86 87 84 83 83 84 85 83 81 81 79 78 77 76 74 71 70 70 70 69 70 68 68 68 68 69
89 88 82 77 72 68 83 89 91 92 78 90 90 87 83 84 81 82 83 85 82 83 83 81 80 79 78 76 78 76 75 74 72 69 68 69 70 68 68 67 67 68 68 70
77 79 77 77 75 80 86 89 91 74 77 91 90 89 87 84 84 82 83 82 83 82 79 79 79 77 74 76 77 74 74 71 70 70 70 69 68 68 67 67 67 67 68 67
75 75 76 79 73 70 88 86 80 85 90 92 90 89 87 82 81 80 79 78 77 76 76 78 76 74 75 75 75 72 69 69 69 68 68 67 67 69 69 66 66 66 66 67
73 79 77 79 82 83 90 86 88 92 90 89 89 89 85 81 79 78 76 76 76 76 76 78 76 73 72 72 74 70 66 68 67 68 68 68 67 67 67 66 66 69 68 69
74 78 79 77 81 82 86 87 88 90 90 89 89 86 85 81 79 77 76 76 75 75 73 74 73 72 69 69 70 69 68 68 68 68 67 68 68 66 68 70 71 70 69 68
78 78 79 79 80 82 83 86 87 86 87 87 86 86 83 81 78 77 75 74 74 73 72 72 70 70 68 68 68 69 69 69 69 67 68 68 71 69 68 69 69 68 68 64
83 81 79 80 85 84 84 87 86 84 83 84 83 81 81 80 77 77 75 74 73 71 70 69 69 68 67 68 68 69 69 68 66 67 70 71 70 71 71 70 69 60 53 52
MSLP
1002.33 1001.49 1000.78 1001.06 1001.27 1001.30 1001.32 1001.33 1001.20 1001.47 1002.34 1003.06 1002.96 1003.10 1003.60 1005.02 1005.44 1005.67 1006.20 1006.62 1007.07 1007.44 1007.93 1008.63 1009.36 1009.83 1010.50 1011.23 1011.79 1012.43 1012.99 1013.53 1014.15 1014.30 1014.18 1014.38 1014.64 1015.12 1014.98 1015.01 1015.43 1015.77 1016.02 1016.12
1002.23 1001.17 1001.16 1001.76 1001.87 1001.59 1001.39 1001.06 1000.75 1001.36 1002.11 1002.67 1002.05 1002.23 1002.63 1003.52 1004.18 1004.64 1005.31 1005.81 1006.12 1006.60 1007.11 1008.01 1008.56 1009.10 1009.54 1010.27 1011.02 1011.75 1012.43 1013.10 1013.65 1013.74 1013.94 1014.00 1014.35 1014.79 1014.77 1014.33 1014.61 1015.11 1015.33 1015.60
1001.12 1000.83 1001.69 1002.21 1001.69 1001.48 1000.92 1000.82 1000.88 1001.27 1001.92 1001.96 1002.04 1000.94 1001.40 1002.42 1003.37 1003.96 1004.38 1004.95 1005.22 1005.69 1006.34 1007.12 1007.73 1008.21 1008.83 1009.41 1010.16 1010.95 1011.72 1012.42 1013.04 1013.34 1013.59 1013.96 1014.19 1014.40 1014.54 1014.37 1014.48 1014.41 1014.85 1015.00
1001.25 1001.37 1001.83 1002.08 1001.36 1001.25 1000.56 1001.01 1001.35 1001.47 1001.16 1000.07 1001.39 999.79 1000.52 1001.23 1002.22 1003.04 1003.60 1004.14 1004.64 1005.07 1005.61 1006.04 1006.74 1007.58 1007.98 1008.65 1009.53 1010.46 1011.36 1011.97 1012.55 1013.07 1013.16 1013.43 1013.32 1013.78 1013.73 1013.79 1014.02 1014.41 1014.31 1014.46
1001.03 1001.51 1001.69 1001.40 1001.01 1001.30 1001.05 1001.58 1001.34 1001.46 1001.01 1000.74 1000.61 1000.09 999.78 1000.61 1000.81 1001.81 1002.71 1003.02 1003.76 1004.17 1004.68 1005.44 1005.95 1006.59 1007.24 1007.90 1008.78 1009.93 1011.03 1011.60 1012.02 1012.58 1013.04 1013.13 1013.44 1013.16 1013.59 1013.38 1013.77 1014.23 1013.90 1013.98
1000.74 1001.09 1001.20 1000.93 1001.28 1001.61 1001.78 1001.60 1001.36 1001.38 1000.74 999.86 1000.29 1000.12 999.03 999.62 1001.27 1001.88 1002.36 1002.34 1002.83 1003.77 1004.09 1004.79 1005.43 1006.21 1006.85 1007.62 1008.44 1009.35 1010.31 1011.14 1011.67 1012.17 1012.71 1012.89 1012.97 1013.24 1013.15 1013.60 1013.83 1013.55 1013.68 1013.61
1000.97 1001.03 1001.16 1001.42 1001.07 1001.44 1001.37 1000.76 1000.13 1000.20 999.75 999.84 1000.59 1000.10 999.24 1000.57 1001.79 1002.37 1002.82 1002.96 1002.92 1002.98 1004.07 1004.70 1005.36 1006.03 1006.81 1007.58 1008.77 1009.60 1010.22 1010.64 1011.15 1011.66 1012.12 1012.43 1012.77 1013.15 1013.27 1013.48 1013.41 1013.36 1013.44 1013.60
1000.06 1000.27 1000.44 1000.83 1000.79 1000.41 1000.92 1000.13 999.95 999.89 999.67 1000.10 1001.05 999.96 999.46 1001.30 1002.20 1002.95 1003.20 1003.35 1003.52 1003.49 1004.15 1004.92 1005.43 1006.19 1007.12 1007.93 1008.91 1009.51 1009.95 1010.52 1010.76 1011.34 1011.80 1012.12 1012.57 1012.78 1012.88 1013.18 1013.38 1013.42 1013.61 1013.07
999.37 999.68 999.62 1000.10 1000.40 1000.66 1000.12 1000.42 1000.42 1000.54 1000.28 1000.35 999.55 999.81 999.90 1001.16 1002.38 1003.16 1003.67 1004.03 1004.37 1004.76 1005.19 1006.12 1006.76 1006.93 1007.58 1008.28 1009.02 1009.50 1009.78 1010.07 1010.33 1010.48 1011.03 1011.88 1012.38 1012.41 1012.62 1013.23 1013.31 1013.28 1013.35 1013.17
999.54 999.44 999.71 1000.10 1000.89 1000.94 1000.66 999.95 1000.35 1000.44 1000.94 1000.35 999.35 999.70 999.47 1000.67 1002.45 1003.43 1004.03 1004.65 1005.22 1005.78 1006.39 1006.80 1007.11 1007.67 1008.02 1008.33 1008.73 1009.12 1009.35 1009.97 1010.08 1010.70 1011.26 1011.67 1011.95 1012.85 1012.66 1013.29 1013.41 1013.04 1012.93 1013.17
999.70 999.39 999.69 1000.29 999.99 999.40 1000.29 1000.06 999.97 999.33 999.24 998.84 998.62 998.77 999.59 1000.82 1002.75 1003.67 1004.46 1005.05 1005.76 1006.33 1006.92 1007.37 1007.80 1008.15 1008.45 1008.72 1008.96 1009.16 1009.99 1010.65 1011.18 1011.57 1012.36 1012.69 1013.11 1012.80 1012.97 1013.45 1013.71 1013.37 1012.86 1013.10
1000.07 999.26 998.88 999.19 999.74 999.89 999.40 998.67 998.78 998.69 998.55 999.17 999.41 999.12 1000.23 1001.55 1003.05 1004.18 1005.16 1005.72 1006.40 1007.04 1007.50 1007.78 1008.19 1008.58 1008.90 1009.23 1009.80 1010.34 1010.67 1011.14 1011.57 1011.97 1012.42 1012.83 1013.37 1013.48 1013.63 1013.50 1014.16 1013.99 1013.70 1013.60
999.80 999.60 998.72 998.96 999.67 999.89 999.23 998.95 998.94 998.54 998.53 998.49 999.01 999.73 1001.87 1002.66 1003.54 1004.84 1005.62 1006.29 1007.02 1007.63 1008.12 1008.28 1008.59 1009.02 1009.57 1010.09 1010.55 1011.01 1011.47 1011.80 1012.02 1012.17 1012.48 1013.08 1013.33 1012.93 1013.09 1013.29 1013.85 1014.04 1013.81 1013.93
999.75 999.06 998.51 998.03 998.21 998.15 998.62 998.84 998.97 998.65 998.11 998.09 998.39 998.98 1001.01 1002.52 1003.80 1005.01 1006.04 1006.76 1007.33 1007.89 1008.48 1008.84 1009.21 1009.70 1010.27 1010.79 1011.19 1011.51 1011.80 1012.01 1012.24 1012.42 1012.70 1012.89 1012.72 1013.24 1012.89 1013.54 1013.79 1013.74 1013.66 1013.77
999.50 998.82 998.58 998.19 999.07 999.09 998.58 998.26 998.79 998.76 998.42 998.57 998.57 999.53 1000.07 1001.93 1003.50 1004.78 1005.88 1006.68 1007.32 1007.96 1008.51 1009.08 1009.45 1009.96 1010.44 1010.84 1011.13 1011.55 1011.88 1012.12 1012.25 1012.44 1012.58 1012.73 1012.69 1012.99 1013.28 1013.71 1013.75 1013.44 1013.63 1013.95
998.89 998.38 998.45 998.67 999.08 999.04 998.54 998.33 998.28 998.43 998.65 999.20 999.36 999.62 1000.24 1001.84 1003.57 1004.67 1005.54 1006.28 1006.94 1007.67 1008.30 1009.09 1009.55 1010.00 1010.41 1010.95 1011.02 1011.41 1012.14 1012.09 1012.26 1012.72 1013.16 1012.99 1013.27 1013.53 1013.78 1013.99 1013.60 1014.07 1014.10 1013.96
998.00 997.78 998.54 998.18 998.70 998.65 998.25 997.76 998.04 998.25 998.71 998.87 998.83 999.61 1001.22 1002.42 1003.34 1004.25 1005.18 1005.92 1006.62 1007.42 1008.27 1008.97 1009.47 1010.01 1010.46 1010.88 1011.47 1012.02 1012.70 1012.73 1013.03 1013.42 1013.62 1013.58 1013.63 1013.92 1014.10 1013.99 1013.97 1014.10 1014.16 1014.69
997.67 997.73 997.98 997.76 998.47 998.09 997.24 997.67 997.85 998.25 998.48 998.92 999.58 1000.41 1001.20 1002.41 1003.57 1004.39 1005.03 1005.80 1006.74 1007.61 1008.43 1009.00 1009.48 1010.33 1010.77 1011.19 1011.79 1012.47 1012.83 1013.21 1013.52 1013.91 1014.09 1014.23 1014.19 1014.27 1014.33 1014.22 1014.38 1014.60 1014.61 1014.63
997.69 997.65 997.79 997.56 997.86 997.53 997.94 998.40 998.35 998.35 998.11 998.94 999.46 1000.88 1002.01 1003.05 1004.32 1005.32 1005.77 1006.31 1007.16 1008.10 1008.97 1009.51 1010.09 1010.80 1011.42 1011.91 1012.55 1012.99 1013.34 1013.79 1014.12 1014.54 1014.68 1014.89 1014.97 1014.86 1014.86 1014.80 1014.73 1014.82 1014.71 1014.61
998.13 998.06 997.79 997.75 996.93 996.63 996.93 997.85 998.72 998.57 998.32 999.33 999.88 1000.98 1002.35 1003.42 1003.38 1004.42 1006.32 1007.11 1008.08 1008.90 1009.58 1010.26 1011.00 1011.73 1012.22 1012.74 1013.06 1013.35 1013.66 1014.09 1014.38 1014.82 1015.11 1015.22 1015.22 1015.18 1015.11 1015.15 1015.11 1015.09 1014.86 1014.46
998.34 998.21 997.47 997.23 997.10 996.89 998.10 998.73 999.18 999.03 999.37 999.58 1000.22 1001.11 1002.23 1003.05 1003.99 1005.07 1006.58 1007.73 1008.52 1009.35 1010.22 1010.90 1011.59 1012.20 1013.04 1013.26 1013.34 1013.65 1014.05 1014.64 1015.15 1015.24 1015.29 1015.34 1015.30 1015.15 1015.37 1015.35 1015.34 1014.95 1014.70 1014.54
998.79 998.20 997.48 997.45 997.49 997.67 998.77 999.47 999.11 999.37 999.72 1000.03 1000.74 1001.64 1002.52 1004.21 1005.35 1006.44 1007.55 1008.57 1009.53 1010.29 1010.90 1011.50 1012.20 1012.91 1013.53 1013.75 1013.92 1014.26 1014.74 1015.24 1015.38 1015.47 1015.55 1015.76 1015.84 1015.64 1015.68 1015.70 1015.45 1015.11 1015.23 1014.47
1000.13 999.42 998.41 998.48 997.84 998.87 998.94 999.62 1000.04 999.82 1000.05 1000.79 1001.44 1002.34 1003.57 1004.76 1006.03 1007.27 1008.38 1009.33 1010.14 1010.81 1011.43 1011.86 1012.52 1013.38 1013.93 1014.24 1014.33 1014.58 1015.32 1015.55 1015.67 1015.70 1015.80 1015.90 1015.96 1015.90 1015.83 1015.58 1015.27 1014.90 1014.42 1013.87
1000.62 1000.38 999.65 999.53 999.36 999.49 999.85 1000.33 1000.62 1000.74 1000.77 1001.42 1002.26 1003.38 1004.29 1005.18 1006.64 1007.85 1008.88 1009.79 1010.63 1011.50 1012.09 1012.54 1013.03 1013.63 1014.26 1014.72 1014.92 1015.22 1015.66 1015.89 1015.92 1015.87 1015.88 1015.76 1015.65 1015.76 1015.52 1015.25 1014.64 1014.38 1014.05 1013.95
1000.54 1000.88 999.92 999.50 999.72 1000.06 1000.37 1000.63 1000.93 1001.61 1001.97 1002.43 1003.23 1003.98 1004.95 1006.02 1007.29 1008.40 1009.40 1010.30 1011.16 1011.94 1012.54 1013.11 1013.64 1014.13 1014.73 1015.17 1015.38 1015.57 1015.84 1015.94 1015.73 1015.71 1015.60 1015.46 1015.09 1014.99 1014.98 1014.64 1014.49 1014.45 1014.32 1014.45
1000.76 999.89 999.56 998.53 999.52 999.90 1000.36 1000.89 1001.72 1002.16 1002.65 1003.39 1003.85 1004.79 1005.80 1006.63 1007.75 1008.86 1009.92 1010.85 1011.67 1012.39 1013.04 1013.54 1013.97 1014.42 1014.96 1015.31 1015.54 1015.81 1016.01 1016.11 1015.99 1015.60 1015.13 1014.84 1014.97 1014.57 1014.28 1014.04 1013.75 1013.73 1013.77 1013.77
Wind_Speed
8 11 8 6 8 5 5 5 7 2 4 9 10 8 10 14 14 13 13 15 15 15 15 14 14 14 13 12 13 13 12 11 9 8 8 8 8 6 7 8 9 9 9 9
10 16 7 6 5 6 5 7 1 5 2 9 9 8 9 16 18 16 16 15 15 16 14 14 14 14 14 14 14 13 14 13 11 9 7 6 3 5 7 7 7 10 11 10
18 7 10 4 8 7 9 7 5 9 2 7 8 13 8 13 15 16 17 17 16 16 15 15 15 14 14 14 14 14 14 13 12 11 8 6 6 5 5 5 6 9 11 11
16 11 9 13 11 7 11 2 1 4 9 1 5 2 9 6 13 16 17 18 17 15 15 13 15 15 15 13 12 13 13 13 12 13 10 11 7 7 5 5 5 6 8 9
15 12 13 13 10 3 9 6 7 7 10 9 11 7 8 6 5 7 16 18 18 18 17 17 16 15 14 12 11 11 12 13 12 12 11 9 9 7 6 6 3 5 6 7
19 7 10 15 5 6 1 7 8 7 10 10 8 7 4 8 9 4 2 12 17 18 16 15 15 13 13 12 11 11 13 13 13 13 12 12 10 9 6 5 5 6 4 4
18 14 14 8 12 7 8 12 10 10 9 2 5 7 5 10 7 5 1 3 7 16 15 14 13 12 11 11 9 8 11 12 12 13 12 12 12 10 10 8 6 5 1 3
16 19 18 11 14 10 15 16 7 5 7 5 2 5 7 9 7 6 5 5 3 7 9 11 9 8 8 7 8 7 9 9 9 9 10 10 10 7 8 8 7 5 4 2
15 19 18 16 12 13 8 13 14 12 9 9 5 5 11 12 10 8 9 8 8 7 7 7 5 6 6 6 7 6 9 10 11 12 11 10 10 10 8 8 8 7 5 4
8 11 11 13 9 8 11 5 10 9 9 18 6 5 7 13 9 8 9 9 9 9 9 9 8 8 6 6 7 6 8 7 7 7 7 5 8 5 3 4 7 8 7 6
5 14 11 10 14 16 9 10 9 12 8 10 10 2 6 8 9 9 9 9 9 9 8 8 7 7 6 4 3 5 4 5 4 2 5 3 1 3 5 3 6 8 6 6
15 10 12 19 7 3 8 9 12 10 13 9 9 9 6 12 10 11 10 9 10 8 8 7 7 6 4 6 7 8 7 6 3 3 3 3 3 6 4 5 9 7 4 5
14 10 9 8 11 7 10 12 11 9 8 11 9 3 9 9 11 10 11 10 10 9 8 7 7 7 6 6 6 8 8 6 4 3 5 5 3 4 2 6 7 8 9 4
12 17 13 12 3 3 13 9 9 11 10 9 7 5 14 10 12 12 11 10 10 9 8 7 6 6 6 5 6 5 5 5 5 5 5 4 6 4 7 2 3 5 4 7
17 18 13 14 4 7 8 7 11 12 12 8 11 10 5 11 14 13 13 12 11 11 9 7 7 6 5 6 4 4 2 1 3 1 5 6 5 4 1 3 4 7 5 4
20 16 16 14 8 11 9 8 10 11 7 8 10 12 8 9 15 14 13 12 13 13 11 10 8 6 6 6 7 3 3 3 3 1 3 4 5 4 4 5 7 8 6 6
17 11 11 14 9 9 10 13 12 11 9 9 9 9 11 15 15 15 15 13 14 14 12 11 9 8 9 9 8 7 6 5 5 5 4 5 5 5 5 7 8 9 8 5
17 19 11 12 8 13 3 4 4 9 7 5 4 7 11 13 12 11 11 13 13 12 12 10 9 9 8 8 8 8 7 6 6 5 5 5 5 6 6 7 7 7 6 6
15 13 9 7 12 4 6 6 8 10 8 6 6 9 11 13 13 10 8 10 12 12 9 7 7 8 7 7 7 7 7 6 5 5 5 5 5 4 6 7 8 8 8 7
12 15 12 11 15 14 9 12 3 2 8 5 3 10 14 17 11 10 12 12 12 12 10 9 9 9 8 7 6 6 5 5 5 6 5 5 6 6 7 7 7 6 6 7
11 13 15 11 11 4 7 9 8 10 7 6 4 8 11 11 6 17 15 12 12 11 11 10 9 8 7 6 6 5 5 5 5 4 5 6 7 6 8 7 7 8 9 9
4 9 7 3 8 10 11 9 9 8 8 7 5 9 11 11 14 15 14 14 12 12 12 10 9 8 7 5 4 5 5 5 5 5 5 5 5 5 5 6 7 8 7 8
5 5 7 5 2 4 14 3 5 1 10 5 6 8 12 15 15 16 14 13 12 12 9 8 8 8 6 5 3 4 5 4 4 3 3 3 3 4 5 7 7 8 7 8
4 2 5 5 6 7 10 5 2 2 7 7 7 11 13 15 16 16 15 13 12 10 8 7 6 6 5 5 5 5 4 4 3 2 3 3 5 4 6 7 6 7 8 8
6 4 6 3 4 4 6 4 5 5 7 11 13 13 14 17 16 15 14 13 11 9 7 6 5 5 5 5 5 4 3 1 3 4 5 6 6 6 7 7 7 8 9 6
9 7 8 3 7 4 7 7 7 9 11 12 14 16 15 16 16 15 13 10 10 8 7 6 6 6 5 5 4 2 1 3 5 6 5 5 7 8 8 8 9 7 13 12
Wind_Direction
201 241 199 291 1 0 314 290 301 326 146 230 247 256 189 184 195 179 187 190 191 202 191 192 199 207 200 212 208 209 206 202 202 204 214 220 223 200 223 228 230 233 235 227
193 235 114 229 306 295 265 273 247 105 108 229 282 271 215 184 204 193 188 191 193 195 186 187 195 205 211 205 214 208 209 200 200 207 218 237 221 219 225 233 223 224 226 230
226 208 137 211 234 258 232 290 360 7 17 233 286 249 202 202 204 204 200 196 191 191 191 188 199 205 210 215 207 211 208 204 203 216 207 208 235 240 228 240 226 227 227 229
230 135 186 231 239 265 278 164 63 312 303 9 235 348 127 175 199 210 209 202 198 197 202 196 195 208 214 218 208 208 206 208 202 205 215 218 220 228 245 224 224 215 219 227
202 197 208 226 233 325 24 359 307 298 289 267 168 262 117 173 189 187 206 210 202 202 199 200 207 203 216 206 203 201 199 205 211 203 221 220 235 238 214 230 219 217 195 213
245 190 215 244 203 270 9 260 261 250 267 250 49 290 130 53 51 101 14 209 204 196 213 202 208 206 213 209 197 193 195 201 200 203 204 226 238 246 243 221 229 246 214 203
217 206 210 228 221 202 252 245 233 222 203 233 77 263 10 77 80 55 42 225 226 203 198 214 207 208 211 210 190 193 204 211 200 203 209 218 226 234 248 250 242 241 248 206
209 207 212 196 238 215 222 257 293 257 282 110 163 260 91 102 101 79 79 105 153 195 185 212 196 199 194 189 191 200 192 222 215 213 223 221 232 232 233 238 265 256 247 236
207 225 200 222 225 234 213 228 261 303 281 273 234 149 254 108 109 104 93 103 113 132 136 99 149 167 145 165 195 195 206 214 210 205 204 215 218 220 256 254 246 228 230 191
200 217 188 181 205 196 279 282 199 221 180 256 160 256 265 129 129 123 112 104 104 108 126 129 121 125 129 148 153 197 211 229 218 210 225 218 209 230 205 240 235 202 186 165
219 236 154 171 204 204 179 219 238 276 262 293 277 247 80 111 142 130 118 112 115 120 120 124 128 131 139 137 134 126 108 87 87 103 69 110 7 166 159 262 267 228 193 193
222 225 175 201 109 351 276 265 214 227 221 239 304 298 96 119 136 132 125 121 118 120 124 125 121 114 112 81 66 52 61 75 68 143 157 155 260 300 313 278 293 327 50 50
199 238 207 186 174 179 234 200 241 280 314 278 282 335 122 128 132 132 131 124 127 131 133 122 124 130 119 94 79 75 69 65 60 94 102 90 32 13 328 302 212 219 219 250
193 234 239 198 191 305 193 208 221 240 261 286 245 304 148 143 146 145 139 133 133 133 135 125 130 126 131 134 124 114 83 69 67 88 82 39 47 53 56 39 251 149 134 159
223 225 229 263 286 272 294 231 207 237 273 293 338 320 61 156 161 155 148 144 138 142 143 135 145 144 172 190 187 162 135 298 166 42 32 18 9 77 66 47 34 36 51 65
206 218 221 244 241 250 264 237 235 233 251 268 277 276 63 134 129 152 152 154 149 149 136 133 132 124 136 199 180 174 348 217 175 173 21 57 55 48 52 47 60 73 51 36
197 202 199 225 200 222 237 232 226 235 237 256 283 72 135 149 160 154 158 157 152 153 146 148 138 121 111 113 123 121 124 134 132 136 138 88 66 53 34 32 34 33 46 48
205 209 202 236 178 227 254 41 218 239 259 238 254 128 151 152 145 154 150 140 146 152 153 149 136 128 126 119 107 115 112 110 111 110 95 56 48 37 23 25 25 20 9 5
222 221 208 203 218 187 166 179 188 211 227 193 216 134 140 137 136 135 132 141 139 139 136 132 121 112 114 119 125 125 123 129 128 98 76 61 53 41 28 21 10 3 351 342
215 208 220 200 241 228 254 144 152 188 223 136 209 153 157 164 196 150 160 136 135 141 135 131 120 125 124 124 134 142 140 134 91 68 49 45 43 38 32 20 9 354 341 334
185 207 218 193 229 163 111 139 161 216 91 108 155 166 173 195 33 126 137 143 139 125 124 122 128 122 124 140 134 126 124 96 87 71 55 40 28 27 21 12 6 354 348 337
238 218 200 257 239 234 149 148 218 104 106 119 136 158 161 118 126 131 137 137 134 127 128 125 126 119 111 111 126 120 94 84 78 76 69 55 39 9 19 355 349 338 332 315
249 350 342 293 44 117 170 26 94 86 129 125 153 161 139 143 142 141 140 141 135 131 130 130 129 124 104 82 64 106 101 100 97 93 71 29 353 348 339 332 325 306 319 326
210 177 285 265 146 166 184 162 168 193 113 132 142 144 152 143 143 142 142 141 139 138 140 130 134 123 109 92 85 99 127 145 183 204 247 266 278 317 287 305 307 311 316 320
338 157 224 227 141 170 186 208 145 132 125 130 133 143 143 142 142 144 142 142 140 137 134 135 139 134 125 124 117 109 118 188 279 297 302 296 288 291 306 288 315 307 300 317
203 214 224 128 121 27 85 153 154 152 145 143 138 136 139 140 140 140 138 135 136 134 134 140 133 133 135 144 135 129 345 312 304 294 276 308 311 300 307 307 305 252 239 253